SCP
0 0 0 0 0 0 0 0 0 0 0 0 0 0 0 0 -0 0 0 0 0 0 0 0 0 0 0 0 0 0 0 0 0 0 0 0 0 0
0 0 0 0 0 0 0 0 0 0 0 0 0 0 0 0 -0 0 0 0 0 0 0 0 0 0 0 0 0 0 0 0 0 0 0 0 0 0
0 0 0 0 0 0 0 0 0 0 0 0 0 0 0 0 0 0 0 0 0 0 0 0 0 0 0 0 0 0 0 0 0 0 0 0 0 0
0 0 0 0 0 0 0 0 0 0 0 0 0 0 0 0 -0 -0 0 0 0 0 0 0 0 0 0 0 0 0 0 0 0 0 0 0 0 0
0 0 0 0 0 0 0 0 0 0 0 0 0 0 0 0 -0 -0 -0 -0 0 0 0 0 0 0 0 0 0 0 0 0 0 0 0 0 0 0
0 0 0 0 0 0 0 0 0 0 0 0 0 0 -0 0 -0 0 0 0 0 -0 0 0 0 0 0 0 0 0 0 0 0 0 0 0 0 0
0 0 0 0 0 0 0 0 0 0 0 -0 -0 -0 0 -0 -0 -0 -0 -0 -0 0 -0 0 0 0 0 0 0 0 0 0 0 0 0 0 0 0
0 0 0 0 0 0 0 0 0 0 0 0 0 -0 -0 -0 -0 -0 -0 -0 -0 -0 -0 -0 0 0 0 0 0 0 0 0 0 0 0 0 0 0
0 0 0 0 0 0 0 0 0 0 -0 0 0 -0 -0 0 0 0 0 -0 0 0 -0 0 0 0 0 0 0 0 0 0 0 0 0 0 0 0
0 0 0 0 0 0 0 0 0 0 0 0 0 0 0 0 0 0 0 0 0 0 0 0 0 0 0 0 0 0 0 0 0 0 0 0 0 0
0 0 0 0 0 0 0 0 0 0 0 0 0 0 0 0 0 0 0 0 0 0 0 0 0 0 0 0 0 0 0 0 0 0 0 0 0 0
0 0 0 0 0 0 0 0 0 0 0 0 0 0 0 0 0 0 0 0 0 0 0 0 0 0 0 0 0 0 0 0 0 0 0 0 0 0
0 0 0 0 0 0 0 0 0 0 0 0 0 0 0 0 0 0 0 0 0 0 0 0 0 0 0 0 0 0 0 0 0 0 0 0 0 0
0 0 0 0 0 0 0 0 0 0 0 0 0 0 0 0 0 0 0 0 0 0 0 0 0 0 0 0 0 0 0 0 0 0 0 0 0 0
0 0 0 0 0 0 0 0 0 0 0 0 0 0 0 0 0 0 0 0 0 0 0 0 0 0 0 0 0 0 0 0 0 0 0 0 0 0
0 0 0 0 0 0 0 0 0 0 0 0 0 0 0 0 0 0 0 0 0 0 0 0 0 0 0 0 0 0 0 0 0 0 0 0 0 0
0 0 0 0 0 0 0 0 0 0 0 0 0 0 0 0 0 0 0 0 0 0 0 0 0 0 0 0 0 0 0 0 0 0 0 0 0 0
0 0 0 0 0 0 0 0 0 0 0 0 0 0 0 0 0 0 0 0 0 0 0 0 0 0 0 0 0 0 0 0 0 0 0 0 0 0
0 0 0 0 0 0 0 0 0 0 0 0 0 0 0 0 0 0 0 0 0 0 0 0 0 0 0 0 0 0 0 0 0 0 0 0 0 0
0 0 0 0 0 0 0 0 0 0 0 0 0 0 0 0 0 0 0 0 0 0 0 0 0 0 0 0 0 0 0 0 0 0 0 0 0 0
0 0 0 0 0 0 0 0 0 0 0 0 0 0 0 0 0 0 0 0 0 0 0 0 0 0 0 0 0 0 0 0 0 0 0 0 0 0
0 0 0 0 0 0 0 0 0 0 0 0 0 0 0 0 0 0 0 0 0 0 0 0 0 0 0 0 0 0 0 0 0 0 0 0 0 0
0 0 0 0 0 0 0 0 0 0 0 0 0 0 0 0 0 0 0 0 0 0 0 0 0 0 0 0 0 0 0 0 0 0 0 0 0 0
Wind_Speed_500mb
44 47 50 50 51 52 55 54 54 72 84 73 69 74 67 57 62 65 71 46 47 51 54 49 55 66 75 82 82 90 83 85 87 92 91 84 83 94
38 42 42 43 48 49 49 51 53 63 88 76 80 81 73 67 58 65 59 51 43 46 48 52 48 60 69 77 86 84 83 83 84 90 86 91 85 90
37 40 40 39 41 44 45 51 55 60 78 92 84 77 74 60 53 60 45 39 33 36 41 49 50 56 59 67 74 76 74 81 80 81 83 82 89 86
34 35 36 36 36 40 44 47 51 56 65 81 78 72 69 63 59 60 61 45 37 34 39 41 40 44 52 50 63 63 61 66 70 68 68 62 54 65
32 31 29 31 33 36 39 41 43 50 53 60 69 58 60 54 52 65 68 43 42 33 39 42 37 27 30 33 39 57 61 66 68 58 57 54 53 51
30 26 25 27 32 36 39 41 43 45 45 46 49 48 48 46 46 48 41 39 41 33 39 45 42 36 19 14 12 13 24 40 60 49 50 45 46 50
29 27 23 24 28 31 34 37 39 40 39 38 38 38 40 41 41 40 44 40 45 39 38 42 39 37 43 31 29 27 25 19 10 19 28 35 34 36
23 21 23 22 24 26 24 26 31 34 38 36 34 35 37 39 40 42 42 45 42 38 37 36 35 37 37 36 40 38 40 36 26 23 25 20 26 28
25 25 22 24 24 25 25 25 26 28 28 29 29 28 32 34 36 38 39 40 36 37 36 36 28 29 37 35 36 41 42 39 38 38 38 34 34 31
26 26 26 25 25 26 26 26 24 24 26 24 22 20 19 18 21 24 24 23 22 20 19 12 17 20 19 26 34 35 35 34 33 30 32 32 32 36
28 27 26 25 25 25 25 26 26 23 24 22 23 25 24 20 18 18 16 15 16 18 18 14 20 19 18 10 5 12 12 14 15 12 15 12 6 5
29 28 29 28 26 27 28 27 25 26 25 21 19 20 22 22 22 20 15 15 18 5 22 15 21 17 10 24 16 13 8 4 6 0 5 5 7 11
34 29 31 32 31 31 31 31 30 29 29 28 26 20 21 23 18 17 17 18 18 14 16 14 15 16 14 13 17 11 2 4 5 8 10 14 17 16
41 35 35 36 35 34 34 34 35 35 34 34 32 30 25 22 25 24 20 22 22 21 20 19 16 15 14 13 5 7 8 5 3 7 10 11 13 16
49 46 43 41 39 38 38 39 39 38 37 35 34 36 35 30 27 29 32 29 27 28 28 28 26 24 22 21 22 23 24 21 22 21 19 18 20 23
50 49 48 47 46 46 43 40 41 40 38 35 31 30 32 33 33 32 30 32 34 30 27 27 27 29 29 31 31 27 26 22 26 30 31 32 33 34
50 53 52 50 51 48 45 43 38 40 40 37 34 32 29 29 29 31 32 31 29 32 32 32 32 32 32 34 34 29 30 31 32 35 36 37 35 37
48 53 54 51 50 50 49 48 46 42 39 38 36 33 34 34 33 31 30 29 30 28 28 28 28 27 26 22 21 20 22 24 26 29 34 39 42 38
43 48 52 55 58 57 53 51 46 39 37 38 39 38 37 37 35 33 30 29 29 25 21 19 17 17 17 17 18 17 15 19 25 30 33 36 41 41
51 54 55 56 57 54 48 44 41 41 43 43 42 40 38 37 38 36 32 30 26 20 15 10 9 8 10 12 13 13 14 18 22 27 31 33 35 37
42 45 48 49 50 51 50 49 48 46 43 41 39 36 33 31 28 25 21 18 17 15 14 13 14 12 13 16 17 19 17 18 21 27 32 36 39 44
30 33 35 35 37 39 38 38 37 34 31 27 24 21 21 21 21 21 19 18 16 16 16 16 16 14 12 15 18 22 25 24 24 28 29 29 34 28
25 26 26 26 26 27 26 26 25 24 22 21 21 20 18 16 15 14 14 14 14 14 14 14 14 12 14 18 18 14 21 26 30 29 20 20 24 29
Wind_Direction_500mb
298 297 298 301 302 302 299 293 283 288 289 295 296 301 303 296 290 302 296 294 282 275 273 270 273 275 264 255 252 252 254 250 255 256 257 259 260 254
305 300 298 296 295 298 301 297 288 281 281 289 292 295 302 301 295 300 294 285 283 284 285 278 273 274 271 260 251 257 250 251 256 252 255 256 258 255
297 294 294 295 297 300 299 296 291 287 283 290 292 298 297 299 290 292 302 294 288 287 294 299 291 291 285 259 253 249 248 252 252 254 255 259 255 254
308 298 295 293 297 300 300 301 296 295 292 292 293 294 295 294 290 290 293 292 293 297 309 297 297 288 295 280 256 244 247 251 248 251 253 254 253 252
328 316 305 300 302 303 304 303 303 302 303 295 296 293 291 293 288 288 288 288 293 292 309 308 287 279 244 238 211 213 222 224 229 242 239 242 243 249
347 336 326 319 316 312 309 305 302 301 303 303 300 298 292 293 287 297 307 305 304 290 302 305 292 278 271 229 218 193 185 199 224 227 231 239 245 246
350 353 344 340 340 333 323 320 314 309 306 298 300 304 303 314 311 311 305 307 307 300 300 304 294 279 263 263 248 248 247 259 181 181 193 197 197 202
334 331 338 340 341 349 345 334 344 337 323 309 299 302 302 306 309 311 309 311 312 301 305 305 298 277 268 260 256 259 259 252 260 261 266 245 230 230
321 323 330 330 330 338 347 345 346 349 348 340 330 315 305 307 309 309 308 304 302 302 303 300 297 280 270 263 257 256 259 261 259 260 261 259 252 243
311 315 320 328 331 334 338 338 340 347 348 345 345 344 339 326 324 327 332 330 324 327 315 310 330 310 278 266 257 260 267 273 269 263 258 256 247 244
301 305 309 315 320 327 332 334 337 337 340 345 343 338 342 347 351 357 1 17 14 27 26 17 3 3 23 21 306 280 293 305 296 290 264 230 191 256
289 294 298 304 308 313 316 320 323 325 328 331 335 334 337 343 346 350 4 11 11 358 19 14 10 7 30 41 30 39 25 350 288 50 280 309 266 254
282 283 286 291 296 300 305 308 310 312 313 315 316 318 319 321 324 327 329 330 334 338 352 5 347 1 21 9 24 41 152 231 256 260 263 252 246 257
280 280 280 283 287 290 294 297 298 298 299 300 301 300 298 292 298 303 300 304 308 311 315 318 315 314 313 323 336 346 358 357 329 268 261 263 267 262
278 281 282 281 281 284 288 293 292 291 290 289 288 291 293 292 287 287 292 290 284 288 292 292 292 290 286 285 283 282 289 283 278 277 269 264 261 257
275 276 276 279 282 286 288 290 291 291 291 293 291 288 290 293 293 290 283 279 284 286 283 279 278 279 281 283 281 282 283 276 275 274 274 274 275 271
269 271 273 275 278 279 282 287 284 282 284 287 289 290 293 294 294 293 291 289 281 278 277 276 275 276 274 275 276 279 276 277 278 283 281 276 272 272
274 276 279 283 284 287 290 288 288 288 286 282 280 286 294 295 296 294 291 287 284 285 284 281 283 285 285 287 282 277 273 276 280 284 286 287 282 281
269 272 276 278 282 286 290 294 295 292 286 287 282 283 286 286 288 291 290 286 282 281 283 285 288 293 299 306 291 282 273 293 300 301 302 303 302 297
259 262 267 273 280 286 287 286 283 283 288 288 283 282 280 280 282 284 284 284 273 273 273 267 260 257 273 284 287 286 287 297 299 301 304 303 304 302
278 276 277 279 280 281 281 282 285 287 288 286 284 281 277 277 275 274 270 267 268 266 269 263 258 257 266 257 258 272 274 278 287 294 301 306 312 314
288 287 286 285 284 285 286 288 288 287 284 282 280 274 268 266 264 263 267 271 269 266 262 267 278 279 269 260 270 279 282 288 292 296 295 297 306 304
297 295 293 290 288 285 283 279 277 276 274 273 273 273 273 272 270 269 270 267 267 268 273 275 282 285 286 298 303 298 302 311 316 320 322 312 305 302
Wind_Speed_850mb
44 47 50 50 51 52 55 54 54 72 84 73 69 74 67 57 62 65 71 46 47 51 54 49 55 66 75 82 82 90 83 85 87 92 91 84 83 94
38 42 42 43 48 49 49 51 53 63 88 76 80 81 73 67 58 65 59 51 43 46 48 52 48 60 69 77 86 84 83 83 84 90 86 91 85 90
37 40 40 39 41 44 45 51 55 60 78 92 84 77 74 60 53 60 45 39 33 36 41 49 50 56 59 67 74 76 74 81 80 81 83 82 89 86
34 35 36 36 36 40 44 47 51 56 65 81 78 72 69 63 59 60 61 45 37 34 39 41 40 44 52 50 63 63 61 66 70 68 68 62 54 65
32 31 29 31 33 36 39 41 43 50 53 60 69 58 60 54 52 65 68 43 42 33 39 42 37 27 30 33 39 57 61 66 68 58 57 54 53 51
30 26 25 27 32 36 39 41 43 45 45 46 49 48 48 46 46 48 41 39 41 33 39 45 42 36 19 14 12 13 24 40 60 49 50 45 46 50
29 27 23 24 28 31 34 37 39 40 39 38 38 38 40 41 41 40 44 40 45 39 38 42 39 37 43 31 29 27 25 19 10 19 28 35 34 36
23 21 23 22 24 26 24 26 31 34 38 36 34 35 37 39 40 42 42 45 42 38 37 36 35 37 37 36 40 38 40 36 26 23 25 20 26 28
25 25 22 24 24 25 25 25 26 28 28 29 29 28 32 34 36 38 39 40 36 37 36 36 28 29 37 35 36 41 42 39 38 38 38 34 34 31
26 26 26 25 25 26 26 26 24 24 26 24 22 20 19 18 21 24 24 23 22 20 19 12 17 20 19 26 34 35 35 34 33 30 32 32 32 36
28 27 26 25 25 25 25 26 26 23 24 22 23 25 24 20 18 18 16 15 16 18 18 14 20 19 18 10 5 12 12 14 15 12 15 12 6 5
29 28 29 28 26 27 28 27 25 26 25 21 19 20 22 22 22 20 15 15 18 5 22 15 21 17 10 24 16 13 8 4 6 0 5 5 7 11
34 29 31 32 31 31 31 31 30 29 29 28 26 20 21 23 18 17 17 18 18 14 16 14 15 16 14 13 17 11 2 4 5 8 10 14 17 16
41 35 35 36 35 34 34 34 35 35 34 34 32 30 25 22 25 24 20 22 22 21 20 19 16 15 14 13 5 7 8 5 3 7 10 11 13 16
49 46 43 41 39 38 38 39 39 38 37 35 34 36 35 30 27 29 32 29 27 28 28 28 26 24 22 21 22 23 24 21 22 21 19 18 20 23
50 49 48 47 46 46 43 40 41 40 38 35 31 30 32 33 33 32 30 32 34 30 27 27 27 29 29 31 31 27 26 22 26 30 31 32 33 34
50 53 52 50 51 48 45 43 38 40 40 37 34 32 29 29 29 31 32 31 29 32 32 32 32 32 32 34 34 29 30 31 32 35 36 37 35 37
48 53 54 51 50 50 49 48 46 42 39 38 36 33 34 34 33 31 30 29 30 28 28 28 28 27 26 22 21 20 22 24 26 29 34 39 42 38
43 48 52 55 58 57 53 51 46 39 37 38 39 38 37 37 35 33 30 29 29 25 21 19 17 17 17 17 18 17 15 19 25 30 33 36 41 41
51 54 55 56 57 54 48 44 41 41 43 43 42 40 38 37 38 36 32 30 26 20 15 10 9 8 10 12 13 13 14 18 22 27 31 33 35 37
42 45 48 49 50 51 50 49 48 46 43 41 39 36 33 31 28 25 21 18 17 15 14 13 14 12 13 16 17 19 17 18 21 27 32 36 39 44
30 33 35 35 37 39 38 38 37 34 31 27 24 21 21 21 21 21 19 18 16 16 16 16 16 14 12 15 18 22 25 24 24 28 29 29 34 28
25 26 26 26 26 27 26 26 25 24 22 21 21 20 18 16 15 14 14 14 14 14 14 14 14 12 14 18 18 14 21 26 30 29 20 20 24 29
Wind_Direction_850mb
298 297 298 301 302 302 299 293 283 288 289 295 296 301 303 296 290 302 296 294 282 275 273 270 273 275 264 255 252 252 254 250 255 256 257 259 260 254
305 300 298 296 295 298 301 297 288 281 281 289 292 295 302 301 295 300 294 285 283 284 285 278 273 274 271 260 251 257 250 251 256 252 255 256 258 255
297 294 294 295 297 300 299 296 291 287 283 290 292 298 297 299 290 292 302 294 288 287 294 299 291 291 285 259 253 249 248 252 252 254 255 259 255 254
308 298 295 293 297 300 300 301 296 295 292 292 293 294 295 294 290 290 293 292 293 297 309 297 297 288 295 280 256 244 247 251 248 251 253 254 253 252
328 316 305 300 302 303 304 303 303 302 303 295 296 293 291 293 288 288 288 288 293 292 309 308 287 279 244 238 211 213 222 224 229 242 239 242 243 249
347 336 326 319 316 312 309 305 302 301 303 303 300 298 292 293 287 297 307 305 304 290 302 305 292 278 271 229 218 193 185 199 224 227 231 239 245 246
350 353 344 340 340 333 323 320 314 309 306 298 300 304 303 314 311 311 305 307 307 300 300 304 294 279 263 263 248 248 247 259 181 181 193 197 197 202
334 331 338 340 341 349 345 334 344 337 323 309 299 302 302 306 309 311 309 311 312 301 305 305 298 277 268 260 256 259 259 252 260 261 266 245 230 230
321 323 330 330 330 338 347 345 346 349 348 340 330 315 305 307 309 309 308 304 302 302 303 300 297 280 270 263 257 256 259 261 259 260 261 259 252 243
311 315 320 328 331 334 338 338 340 347 348 345 345 344 339 326 324 327 332 330 324 327 315 310 330 310 278 266 257 260 267 273 269 263 258 256 247 244
301 305 309 315 320 327 332 334 337 337 340 345 343 338 342 347 351 357 1 17 14 27 26 17 3 3 23 21 306 280 293 305 296 290 264 230 191 256
289 294 298 304 308 313 316 320 323 325 328 331 335 334 337 343 346 350 4 11 11 358 19 14 10 7 30 41 30 39 25 350 288 50 280 309 266 254
282 283 286 291 296 300 305 308 310 312 313 315 316 318 319 321 324 327 329 330 334 338 352 5 347 1 21 9 24 41 152 231 256 260 263 252 246 257
280 280 280 283 287 290 294 297 298 298 299 300 301 300 298 292 298 303 300 304 308 311 315 318 315 314 313 323 336 346 358 357 329 268 261 263 267 262
278 281 282 281 281 284 288 293 292 291 290 289 288 291 293 292 287 287 292 290 284 288 292 292 292 290 286 285 283 282 289 283 278 277 269 264 261 257
275 276 276 279 282 286 288 290 291 291 291 293 291 288 290 293 293 290 283 279 284 286 283 279 278 279 281 283 281 282 283 276 275 274 274 274 275 271
269 271 273 275 278 279 282 287 284 282 284 287 289 290 293 294 294 293 291 289 281 278 277 276 275 276 274 275 276 279 276 277 278 283 281 276 272 272
274 276 279 283 284 287 290 288 288 288 286 282 280 286 294 295 296 294 291 287 284 285 284 281 283 285 285 287 282 277 273 276 280 284 286 287 282 281
269 272 276 278 282 286 290 294 295 292 286 287 282 283 286 286 288 291 290 286 282 281 283 285 288 293 299 306 291 282 273 293 300 301 302 303 302 297
259 262 267 273 280 286 287 286 283 283 288 288 283 282 280 280 282 284 284 284 273 273 273 267 260 257 273 284 287 286 287 297 299 301 304 303 304 302
278 276 277 279 280 281 281 282 285 287 288 286 284 281 277 277 275 274 270 267 268 266 269 263 258 257 266 257 258 272 274 278 287 294 301 306 312 314
288 287 286 285 284 285 286 288 288 287 284 282 280 274 268 266 264 263 267 271 269 266 262 267 278 279 269 260 270 279 282 288 292 296 295 297 306 304
297 295 293 290 288 285 283 279 277 276 274 273 273 273 273 272 270 269 270 267 267 268 273 275 282 285 286 298 303 298 302 311 316 320 322 312 305 302